Weather History for Kenosha, WI

Change the Weather History Date:

Wednesday, October 10, 2012

  Actual Average Record
Temperature  
Mean Temperature 42 °F -  
Max Temperature 51 °F 58 °F 84 °F (1949)
Min Temperature 34 °F 42 °F 27 °F (1964)
Degree Days  
Heating Degree Days 24    
Moisture  
Dew Point 28 °F    
Average Humidity 64    
Maximum Humidity 93    
Minimum Humidity 35    
Precipitation  
Precipitation 0.01 in - - ()
Sea Level Pressure  
Sea Level Pressure 30.06 in    
Wind  
Wind Speed 9 mph (West)    
Max Wind Speed 20 mph    
Max Gust Speed 33 mph    
Visibility 10 miles    
Events      
Averages and records for this station are not official NWS values.
T = Trace of Precipitation, MM = Missing Value Source: NWS Daily Summary

Daily Weather History Graph

Daily Weather History Graph

Search for Another Location

Airport:

Trip Planner

Search our weather history database for the weather conditions in past years. The results will help you decide how hot, cold, wet, or windy it might be!

Date:

Astronomy

Oct. 10, 2012 Rise Set
Actual Time 6:59 AM CDT 6:16 PM CDT
Civil Twilight 6:31 AM CDT 6:45 PM CDT
Nautical Twilight 5:58 AM CDT 7:17 PM CDT
Astronomical Twilight 5:25 AM CDT 7:50 PM CDT
Moon 1:29 AM CDT (10/10) 3:25 PM CDT (10/10)
Length of Visible Light 12h 13m
Length of Day
11h 17m
Waning Crescent, 27% of the Moon is Illuminated
Oct 10
Waning Crescent
Oct 15
New
Oct 21
First Quarter
Oct 29
Full
Nov 6
Last Quarter

Hourly Weather History & Observations

Time (CDT) Temp. Windchill Dew Point Humidity Pressure Visibility Wind Dir Wind Speed Gust Speed Precip Events Conditions
12:53 AM 39.9 °F 35.1 °F 37.9 °F 93% 29.90 in 10.0 mi West 6.9 mph - N/A   Clear
1:53 AM 39.0 °F 34.0 °F 36.0 °F 89% 29.91 in 10.0 mi West 6.9 mph - N/A   Clear
2:53 AM 39.0 °F 32.3 °F 35.1 °F 86% 29.92 in 10.0 mi West 10.4 mph - N/A   Clear
3:53 AM 37.0 °F 30.4 °F 34.0 °F 89% 29.93 in 10.0 mi West 9.2 mph - N/A   Clear
4:53 AM 36.0 °F 30.3 °F 33.1 °F 89% 29.94 in 10.0 mi West 6.9 mph - N/A   Clear
5:53 AM 35.1 °F 27.9 °F 32.0 °F 89% 29.97 in 10.0 mi West 9.2 mph - N/A   Clear
6:53 AM 35.1 °F 27.9 °F 30.9 °F 85% 30.00 in 10.0 mi West 9.2 mph - N/A   Mostly Cloudy
7:53 AM 36.0 °F 29.0 °F 30.9 °F 82% 30.03 in 10.0 mi West 9.2 mph - N/A   Clear
8:53 AM 39.0 °F 32.3 °F 30.9 °F 73% 30.06 in 10.0 mi WNW 10.4 mph 20.7 mph N/A   Partly Cloudy
9:53 AM 42.1 °F 34.2 °F 32.0 °F 67% 30.08 in 10.0 mi WNW 16.1 mph - N/A   Scattered Clouds
10:53 AM 45.0 °F 38.2 °F 30.9 °F 58% 30.09 in 10.0 mi WNW 15.0 mph 26.5 mph 0.01 in   Scattered Clouds
11:53 AM 44.1 °F 37.1 °F 24.1 °F 45% 30.10 in 10.0 mi NW 15.0 mph 27.6 mph N/A   Mostly Cloudy
12:53 PM 48.9 °F - 21.9 °F 35% 30.09 in 10.0 mi WNW 19.6 mph 33.4 mph N/A   Mostly Cloudy
1:53 PM 48.9 °F - 21.9 °F 35% 30.09 in 10.0 mi WNW 17.3 mph 25.3 mph N/A   Scattered Clouds
2:53 PM 46.9 °F - 21.9 °F 37% 30.10 in 10.0 mi WNW 15.0 mph 25.3 mph N/A   Partly Cloudy
3:53 PM 48.9 °F - 21.9 °F 35% 30.10 in 10.0 mi WNW 15.0 mph 24.2 mph N/A   Mostly Cloudy
4:53 PM 48.9 °F - 21.9 °F 35% 30.11 in 10.0 mi West 13.8 mph 23.0 mph N/A   Partly Cloudy
5:53 PM 46.9 °F - 23.0 °F 39% 30.13 in 10.0 mi West 9.2 mph 19.6 mph N/A   Clear
6:53 PM 37.9 °F 35.5 °F 23.0 °F 55% 30.15 in 10.0 mi West 3.5 mph - N/A   Clear
7:53 PM 39.9 °F - 24.1 °F 53% 30.17 in 10.0 mi Calm Calm - N/A   Clear
8:53 PM 37.9 °F 34.4 °F 27.0 °F 65% 30.17 in 10.0 mi SSW 4.6 mph - N/A   Clear
9:53 PM 37.0 °F 33.3 °F 26.1 °F 65% 30.17 in 10.0 mi SSW 4.6 mph - N/A   Clear
10:53 PM 37.0 °F 33.3 °F 27.0 °F 67% 30.17 in 10.0 mi SSW 4.6 mph - N/A   Clear
11:53 PM 34.0 °F 28.8 °F 26.1 °F 73% 30.17 in 10.0 mi SSW 5.8 mph - N/A   Clear